Temp
12 11 12 11 12 12 14 15 18 20 21 22 23 24 24 24 25 24 31 32 31 29 28 31 30 31 31 33 34 35 34 26 35 34 35 36 35 35 35 34 34 34 34 33 31
11 11 12 11 12 12 14 15 17 20 21 22 23 24 24 24 24 31 32 31 30 29 30 32 33 33 34 34 34 34 34 24 36 36 35 36 35 34 34 34 33 33 33 32 31
11 11 11 11 12 13 14 14 16 19 20 22 24 24 24 24 29 35 30 31 29 29 32 33 33 33 34 36 36 35 33 30 36 36 37 35 34 35 34 32 33 32 33 33 31
11 10 11 11 12 13 15 16 16 18 20 22 24 24 24 22 34 32 30 30 29 29 32 32 34 34 35 33 36 34 34 35 35 36 36 35 35 34 34 34 34 34 33 32 32
11 11 11 11 12 13 17 18 20 20 21 23 24 25 23 32 35 28 29 29 28 30 33 34 34 35 32 34 36 35 35 35 35 35 36 35 35 34 33 33 34 34 33 32 32
12 11 12 14 15 15 20 22 22 23 23 24 24 24 26 34 33 30 31 29 32 33 35 34 34 36 35 35 32 27 34 35 35 35 35 35 34 33 32 33 33 33 33 31 31
13 13 14 16 19 21 22 23 23 23 24 24 25 23 32 35 33 33 32 33 34 34 35 33 34 35 36 35 36 34 33 35 35 35 35 35 32 33 33 33 32 33 31 31 31
14 15 17 20 21 22 23 23 23 24 24 24 25 23 35 32 33 33 33 34 33 34 33 32 34 36 36 36 35 34 32 33 35 35 35 34 29 32 33 33 33 32 30 30 32
15 15 19 21 22 23 23 23 24 24 24 25 24 30 36 30 33 33 34 35 35 35 34 33 34 36 36 29 31 28 24 32 33 35 35 34 33 33 33 33 33 32 31 30 31
17 19 21 23 23 23 23 23 23 24 24 23 28 33 35 35 35 34 34 34 36 37 36 35 35 33 36 29 29 34 26 34 33 32 35 35 35 34 33 34 34 32 32 32 32
19 20 22 23 23 23 22 22 28 31 30 36 36 36 35 35 33 33 34 35 35 35 33 36 25 21 29 37 37 37 36 33 36 36 35 35 35 34 34 34 34 33 32 32 31
21 22 23 24 24 23 23 32 33 33 34 36 35 35 35 35 35 35 34 35 36 35 33 37 27 30 38 37 37 37 36 29 35 36 35 35 35 35 34 34 34 34 34 34 33
22 23 23 23 23 22 27 32 31 32 35 35 36 36 36 36 36 36 36 36 36 36 37 33 23 29 38 38 38 28 37 36 31 36 36 35 34 35 35 35 35 35 35 35 35
22 23 23 23 22 30 32 31 31 31 34 34 35 36 36 36 36 38 37 37 37 36 34 36 32 38 38 36 38 29 37 37 36 35 25 36 25 35 35 34 34 35 35 36 36
23 24 23 24 22 32 33 31 31 32 34 37 36 36 38 36 37 36 36 36 35 36 37 22 24 35 37 37 37 37 37 37 37 37 37 37 37 36 36 34 35 35 36 36 36
23 24 22 20 21 30 30 31 32 33 33 36 37 35 36 37 38 36 36 37 37 36 37 37 34 37 38 38 37 37 38 37 37 31 28 38 36 37 37 37 36 36 36 36 37
24 22 23 24 33 30 30 33 33 35 37 36 36 37 36 36 37 36 35 35 35 35 36 37 36 37 39 38 39 38 38 25 26 32 36 39 36 38 39 39 39 37 37 37 37
23 22 23 24 28 29 31 34 34 37 37 38 37 37 36 38 37 37 37 36 37 37 37 30 34 39 40 38 35 38 39 33 24 33 30 38 34 38 40 39 39 39 38 37 37
23 23 28 29 28 28 33 35 37 37 38 38 37 37 37 38 38 37 37 38 38 39 37 37 38 39 39 39 38 27 37 39 36 39 36 39 39 39 39 39 38 39 38 37 37
25 32 33 29 29 31 35 34 38 38 38 38 37 38 37 37 37 38 38 39 39 40 40 38 37 39 39 39 39 38 30 36 35 32 29 33 38 37 37 38 38 38 38 38 38
25 35 32 30 30 34 36 38 38 39 38 38 38 38 38 38 38 38 38 39 39 39 39 39 39 39 39 38 38 38 38 37 33 38 36 32 26 39 38 38 38 38 38 38 38
33 35 32 32 34 37 37 38 26 38 39 38 38 38 38 38 38 38 38 39 40 40 38 39 39 38 39 41 41 40 39 39 37 27 35 37 25 39 39 39 38 37 37 37 39
34 35 33 33 34 37 38 37 38 37 38 38 37 38 39 38 37 38 39 39 39 38 38 39 38 37 38 40 41 39 40 40 40 38 37 36 36 39 39 38 38 36 35 35 36
32 34 35 35 36 35 36 35 36 38 37 37 37 38 37 37 38 37 38 39 38 38 30 37 39 38 38 39 40 39 39 40 40 38 38 37 35 38 38 38 37 35 34 34 34
31 31 28 34 34 33 34 34 34 35 37 37 36 37 36 36 37 38 38 39 39 30 36 38 37 39 39 40 40 40 40 40 39 39 38 34 37 39 39 38 37 36 35 34 34
27 25 27 30 32 32 30 34 33 34 32 34 35 36 35 35 36 36 36 38 37 38 37 39 37 38 38 39 40 39 40 40 40 39 39 39 39 42 40 39 38 36 35 34 34
20 22 25 28 32 32 32 30 30 30 32 34 33 32 32 34 33 34 35 36 37 37 38 38 38 38 36 39 39 38 39 40 40 40 40 39 40 40 39 39 38 37 36 35 35
Height
783 782 781 780 779 779 779 779 780 780 780 780 780 780 780 780 778 777 772 768 768 769 769 768 769 766 764 758 753 744 762 797 758 761 755 745 754 753 754 759 760 764 763 769 778
783 781 780 779 779 778 778 779 779 779 779 779 780 780 780 778 777 770 765 766 767 768 769 765 763 762 759 755 752 755 757 797 743 743 749 744 753 760 760 760 765 769 768 770 781
783 780 779 778 777 777 777 777 778 778 778 779 780 780 779 778 773 754 762 764 766 767 764 762 761 761 757 743 743 744 763 758 745 743 738 746 757 752 758 769 762 769 769 772 780
783 780 778 777 776 776 776 776 776 777 777 778 779 779 777 778 771 759 761 764 766 768 764 764 758 758 752 761 737 754 748 746 746 741 741 750 752 758 759 760 756 758 766 774 779
783 780 777 776 775 774 774 775 776 776 777 778 778 778 777 767 755 760 762 764 766 766 761 757 755 752 763 750 743 750 744 744 743 742 741 747 754 757 764 760 758 759 766 773 777
782 779 777 775 774 773 774 775 776 776 777 778 778 777 775 767 760 761 763 765 762 760 755 757 752 744 748 746 759 768 752 746 743 745 745 752 758 760 763 759 760 762 766 778 780
782 779 777 775 774 774 775 776 776 776 777 778 778 777 768 759 761 761 762 760 757 757 753 757 753 746 743 745 740 752 760 747 747 747 752 748 771 767 761 760 764 763 775 776 778
783 779 777 775 774 774 775 775 776 776 777 778 777 777 757 761 761 760 759 758 758 756 755 755 750 740 739 738 746 759 765 773 749 749 748 756 794 766 760 762 763 767 778 779 779
783 780 777 775 775 774 775 775 776 776 777 777 777 772 757 761 759 757 756 753 753 751 749 751 749 739 743 778 774 782 812 774 762 745 748 756 768 761 758 759 764 769 774 781 782
783 780 778 776 776 775 776 776 776 776 777 779 775 771 756 753 753 756 756 753 747 741 740 744 742 757 738 774 798 767 802 759 767 760 750 751 757 758 758 757 762 770 773 777 778
783 780 778 777 777 777 776 778 777 773 770 753 750 750 752 752 756 756 754 751 749 739 758 736 787 815 771 736 734 739 745 763 746 739 750 747 750 758 756 757 760 765 770 773 779
782 779 777 777 777 777 777 765 760 761 761 754 754 754 752 752 756 753 753 753 743 754 750 734 787 770 727 729 733 732 742 780 747 740 746 744 749 748 752 755 755 761 762 765 772
780 778 775 775 776 776 772 764 764 761 755 755 750 750 751 752 749 747 749 744 745 744 739 758 802 754 726 728 735 781 740 742 770 742 739 744 758 748 748 748 751 753 754 756 762
778 775 773 773 777 767 765 763 764 763 761 765 756 748 747 748 752 739 744 744 745 749 754 743 743 733 728 744 733 782 729 731 737 755 815 743 818 754 745 753 752 752 753 753 756
775 771 768 768 770 764 762 763 763 763 784 748 749 744 740 751 740 748 745 746 759 749 742 813 791 750 743 740 730 739 724 727 729 737 740 739 742 740 736 753 752 748 748 749 751
771 768 766 770 770 763 763 763 761 777 786 753 743 752 753 748 741 744 746 744 739 748 743 744 749 740 729 725 726 724 727 729 731 766 802 729 748 745 739 737 740 740 741 744 747
769 766 766 769 761 763 763 760 774 765 736 754 749 744 750 753 747 749 756 760 765 770 759 747 748 731 720 732 720 728 730 826 826 786 758 722 742 732 715 713 718 731 736 739 742
768 767 767 766 765 764 761 761 775 746 743 732 736 740 754 741 745 745 751 758 744 744 751 795 772 727 713 727 752 729 730 775 856 790 799 724 769 736 705 707 708 712 725 732 737
767 767 766 763 764 764 758 766 750 743 734 737 740 750 749 741 741 745 748 744 733 730 757 751 745 723 719 715 728 791 749 721 751 727 753 726 726 718 711 715 718 715 719 729 734
767 760 757 762 763 761 756 756 737 731 731 730 745 738 751 747 752 745 743 727 732 721 719 733 751 724 717 718 719 733 754 754 760 796 824 779 742 746 732 727 722 720 721 722 728
766 751 757 760 762 755 755 735 734 722 729 736 736 738 736 741 740 740 739 724 721 721 721 726 735 734 725 735 733 734 738 737 759 742 767 802 817 719 723 718 723 721 719 719 721
757 755 755 758 760 741 743 730 750 730 723 730 730 732 734 730 738 740 737 726 713 717 733 724 730 741 732 706 703 715 726 722 747 809 757 751 820 712 713 713 715 721 723 721 716
756 748 752 754 764 745 731 735 732 735 730 731 735 725 722 735 746 732 726 712 718 725 730 721 738 757 746 717 706 725 717 712 714 729 750 766 754 709 710 718 718 727 728 729 724
764 759 747 746 742 751 747 747 745 725 735 730 733 726 733 735 724 735 729 715 716 722 734 727 730 737 750 730 709 722 718 713 719 742 743 748 759 725 717 721 722 729 732 734 735
775 775 781 759 754 760 754 753 754 749 728 730 739 734 738 743 732 730 721 717 712 729 727 728 742 725 716 710 708 708 706 709 724 725 740 757 741 713 710 715 719 725 732 737 740
794 800 788 776 766 763 762 755 755 747 756 750 742 736 735 745 737 739 728 722 725 713 723 715 740 727 731 712 707 715 703 708 712 715 719 719 723 691 694 705 715 724 731 737 739
818 811 800 778 769 767 764 768 769 767 757 746 749 756 754 745 743 736 729 723 717 720 717 717 721 727 743 711 712 731 711 710 708 702 707 725 707 698 704 709 714 720 727 733 736
Wind_Speed
12 11 8 7 6 5 4 4 5 6 6 6 7 6 5 6 8 8 11 3 8 9 9 9 7 7 8 7 10 11 10 2 8 5 8 10 6 4 2 5 4 3 3 20 24
13 11 8 7 6 5 4 4 5 6 6 7 6 5 5 7 11 17 11 9 8 10 12 11 8 7 10 9 4 9 10 3 9 4 2 9 2 5 7 6 7 6 3 20 21
15 12 9 7 5 5 3 4 5 6 7 7 4 3 5 6 13 6 10 10 11 11 12 8 7 6 14 11 10 11 4 23 6 6 3 7 4 8 4 5 3 9 9 17 19
16 14 9 7 6 4 4 5 5 5 6 5 2 3 5 5 2 6 7 11 13 10 8 7 11 11 14 8 7 3 2 6 6 4 1 6 5 3 7 8 6 7 13 14 16
18 15 12 9 6 4 3 4 5 5 5 3 1 4 4 9 3 1 12 13 13 9 10 9 11 11 1 7 7 4 6 2 1 3 2 5 2 4 1 4 4 7 14 14 15
19 16 13 8 6 3 3 2 3 4 4 2 1 4 7 13 4 9 12 12 13 12 3 5 6 11 6 10 9 21 3 1 3 4 4 4 4 6 5 2 7 11 14 12 16
20 16 13 8 5 3 1 3 3 3 3 1 2 4 11 4 3 8 11 13 7 3 4 3 11 12 2 4 5 5 1 3 5 5 3 5 1 5 4 7 11 13 13 15 15
21 16 11 7 4 2 3 4 4 3 2 3 3 6 3 1 5 8 8 9 8 6 4 6 9 13 10 3 3 5 6 9 8 5 4 5 8 7 7 10 12 15 14 12 13
21 16 10 5 3 4 5 6 6 5 4 4 4 9 4 4 11 11 11 11 11 9 9 7 10 14 8 6 9 11 7 6 10 7 3 7 5 10 9 11 11 13 17 12 10
21 14 8 4 4 5 7 7 6 5 3 5 9 8 6 10 12 8 7 7 11 10 13 13 11 7 6 3 5 4 5 2 11 6 6 7 6 9 10 11 13 12 14 12 13
22 14 6 2 4 6 7 2 6 6 12 7 10 5 3 5 7 10 10 11 11 18 9 18 14 12 27 6 8 6 2 11 1 6 6 5 9 10 11 10 12 13 15 15 12
22 15 9 2 5 8 3 7 10 7 9 6 2 3 3 12 9 9 9 12 17 17 27 9 8 27 5 3 4 5 8 12 7 7 8 10 9 13 12 12 12 13 13 16 17
24 16 11 4 7 8 12 11 6 6 7 10 9 14 9 10 13 15 13 13 18 18 15 4 12 34 7 7 9 22 4 4 15 9 11 7 9 16 14 13 12 13 14 14 16
25 18 12 8 5 8 9 4 4 4 6 8 10 7 9 10 11 3 13 14 12 16 6 9 16 8 9 11 15 15 6 3 4 1 4 12 5 14 17 15 15 15 15 16 18
24 19 6 22 7 8 4 2 5 5 3 9 9 6 11 14 9 14 12 13 14 18 12 7 21 21 9 9 10 9 6 5 8 12 2 8 4 11 16 17 17 17 18 17 18
22 11 2 15 6 7 4 3 6 7 5 8 8 10 12 16 14 6 12 16 13 15 15 9 23 20 8 6 5 8 8 6 7 12 6 5 6 7 13 15 18 19 18 18 17
18 4 9 8 1 4 6 6 7 2 5 7 9 12 15 13 15 12 13 15 14 14 16 12 15 18 2 12 7 9 14 6 8 4 1 5 7 10 10 9 15 20 18 18 18
8 3 3 7 4 3 8 9 10 0 11 4 3 9 11 10 13 13 15 16 18 18 11 11 16 11 9 10 10 10 12 5 5 5 8 8 9 8 9 7 4 16 19 18 18
1 2 7 3 7 6 8 12 5 5 4 6 8 7 7 9 8 9 11 13 13 16 15 16 8 6 4 5 3 13 11 17 3 13 11 9 15 6 9 8 6 6 17 18 18
3 9 5 3 7 8 9 10 4 3 4 6 8 7 7 10 10 8 10 7 13 12 11 17 12 10 8 5 11 9 16 9 7 2 2 8 14 9 9 8 6 6 9 16 18
6 5 6 5 6 7 11 6 1 3 4 7 12 2 6 9 9 9 4 5 3 8 8 13 14 7 5 9 12 8 11 6 10 8 1 3 10 7 8 7 5 5 5 10 16
7 6 6 6 7 9 10 6 3 10 4 7 5 9 10 3 7 8 7 6 4 9 9 12 15 11 14 11 7 9 12 15 3 5 16 3 13 5 8 7 5 5 2 3 12
6 4 5 7 10 11 11 6 6 13 12 5 8 6 8 10 7 13 8 4 4 8 5 11 10 12 15 13 14 9 14 13 10 12 2 7 6 2 10 7 5 7 5 3 6
5 3 4 6 7 12 13 9 14 7 8 14 12 14 12 13 12 9 14 7 5 9 6 7 15 15 12 12 11 12 16 15 8 7 4 6 6 6 8 8 8 8 7 7 8
5 5 5 4 3 8 12 12 13 14 8 8 10 14 15 14 15 14 13 14 10 10 8 9 18 17 16 16 17 18 8 10 9 10 9 4 20 9 8 8 11 11 11 12 13
5 5 7 10 11 10 9 9 9 11 8 15 9 12 14 9 15 17 17 6 11 13 12 14 16 20 18 15 14 22 12 10 14 9 12 12 11 12 12 9 12 14 13 13 13
14 12 6 6 8 9 5 10 12 13 11 14 12 10 12 12 16 17 16 19 16 18 16 15 17 16 19 15 15 19 15 15 17 14 13 11 4 5 7 11 13 16 16 15 14
Wind_Direction
345 335 325 317 312 300 276 264 236 228 233 249 257 266 282 282 275 252 243 185 205 226 198 197 210 240 247 263 256 254 266 306 138 82 135 148 148 123 358 105 189 140 317 146 147
350 339 335 323 313 302 276 271 241 231 235 244 249 271 285 284 276 254 234 237 212 195 198 196 215 236 262 254 236 254 278 301 65 45 61 143 129 139 229 162 166 171 123 130 151
354 345 343 330 319 297 262 267 256 233 237 247 249 275 277 295 265 117 181 217 191 188 242 232 273 245 266 238 225 256 270 205 78 24 302 107 126 236 230 211 265 153 179 148 162
357 352 343 333 317 302 265 243 248 235 237 248 259 282 281 265 323 87 174 181 171 200 240 233 249 238 259 281 251 259 162 331 11 35 17 113 160 171 315 4 337 139 159 158 168
358 354 349 345 336 319 271 234 220 226 237 241 247 273 288 228 2 48 165 163 175 214 230 241 269 262 306 271 262 204 138 2 4 179 114 118 113 39 72 303 222 191 155 166 172
360 354 351 347 339 325 249 226 226 227 237 242 216 270 249 250 90 120 153 172 197 216 202 254 303 319 299 270 131 261 58 164 198 131 137 196 158 228 106 186 150 152 159 174 170
1 358 355 353 2 16 53 125 174 205 218 159 220 272 259 20 165 164 170 191 189 240 274 251 255 244 317 288 4 118 132 245 181 173 145 265 162 96 115 149 150 162 133 172 167
3 2 3 9 29 76 118 123 154 173 163 148 231 264 304 126 200 190 194 200 214 219 244 229 242 268 266 110 204 151 215 219 209 197 168 234 201 130 156 154 166 131 143 191 170
5 4 8 35 75 112 124 131 148 148 150 173 248 234 188 138 197 199 205 208 205 227 226 223 245 260 196 115 305 106 273 194 205 191 238 214 187 136 160 175 152 152 162 154 175
4 6 16 56 114 122 127 139 148 130 194 233 268 247 197 213 175 186 218 246 241 252 228 211 228 319 234 127 227 159 293 261 144 212 205 190 126 145 166 185 159 164 156 177 178
0 1 1 75 119 140 118 167 198 187 206 294 185 251 133 127 162 212 214 222 248 250 253 254 78 247 268 1 346 289 319 110 9 118 245 227 141 164 173 191 169 174 180 179 172
353 353 351 205 185 193 257 262 33 344 185 201 272 248 278 191 178 214 202 236 224 258 307 237 121 244 352 278 261 232 246 341 52 153 217 156 220 159 180 186 176 190 183 175 163
349 342 335 227 195 217 236 294 327 318 252 166 197 212 189 215 229 187 208 232 277 282 277 66 219 271 285 342 342 325 353 199 176 188 207 186 210 162 179 183 180 190 188 175 165
346 335 323 170 200 213 233 235 267 296 253 130 188 213 185 226 230 299 203 253 251 277 326 303 214 290 324 327 339 168 4 307 257 166 311 206 292 197 172 187 189 193 194 188 178
341 331 296 177 310 222 55 252 286 240 221 131 134 108 206 214 143 189 205 247 268 305 311 15 329 295 332 13 337 11 329 248 249 247 42 187 237 162 175 188 193 198 191 203 191
340 334 198 191 252 263 266 287 240 237 98 142 139 182 190 213 219 127 197 230 277 285 279 258 225 278 326 333 312 302 263 224 219 43 266 123 105 158 173 196 191 193 196 198 196
342 341 173 176 322 231 252 244 245 308 184 137 176 165 195 189 219 185 200 209 239 225 236 233 254 265 216 279 208 248 253 0 334 128 112 58 153 75 116 171 185 188 195 192 194
352 114 273 212 272 262 241 253 265 296 54 104 210 180 206 187 217 198 194 231 217 264 287 254 263 252 198 265 199 313 320 138 252 182 242 144 121 70 103 109 171 169 185 192 197
3 234 215 192 216 250 266 261 25 20 347 101 164 205 202 192 257 211 228 233 244 213 258 281 227 217 243 282 303 296 313 341 78 288 13 97 100 105 107 127 155 213 173 190 195
261 216 135 227 201 239 260 279 79 36 323 257 268 284 172 185 201 210 232 225 240 243 251 266 283 186 150 252 241 275 176 316 21 230 125 321 85 92 153 165 171 194 190 189 196
243 231 112 154 202 241 260 8 30 123 332 316 341 244 294 166 207 222 280 185 245 208 238 256 266 271 137 239 256 211 217 178 194 256 179 89 313 33 117 122 161 177 206 213 202
284 238 132 181 244 240 272 355 39 278 180 277 267 287 300 234 243 244 252 244 102 297 228 227 286 278 241 217 244 286 298 267 204 357 290 225 203 101 77 118 118 101 131 239 220
308 338 145 233 253 259 240 253 262 289 276 258 271 269 306 288 268 273 246 88 321 280 275 269 232 255 259 229 184 226 259 260 267 173 254 298 88 48 110 121 118 126 128 168 184
291 272 154 215 275 292 306 313 280 263 275 280 289 296 273 262 254 264 281 243 171 257 31 302 272 265 260 278 302 223 209 243 273 278 239 279 269 153 127 153 145 136 144 144 156
0 51 353 318 74 325 295 297 298 286 304 284 270 264 268 279 274 252 239 255 189 166 228 246 269 270 268 268 282 275 213 202 212 274 271 156 273 260 147 176 156 151 157 154 153
14 347 340 287 290 280 265 259 301 319 334 278 308 344 338 300 298 316 322 268 278 165 221 233 257 278 280 293 263 263 236 249 258 245 266 286 283 287 128 156 154 159 168 169 171
4 339 284 282 319 287 7 354 320 328 288 258 353 337 295 338 335 313 298 296 296 289 284 230 253 254 271 261 231 246 246 254 267 263 263 252 233 84 143 170 174 166 168 170 173